DEMAR NZAA-YSNF

Flight info

Callsign DEMAR
Flight time N/A
Altitude 16000
Route ELNOS G591 MUGEN/N0197F180 G591 ABVOM
Aircraft BT36/L-BDFGLORY/S

Departure

Time N/A
Airport Auckland International Airport (NZAA)

Arrival

Time 2026-05-03 20:38
Airport Norfolk Island International Airport (YSNF)
Time Latitude Longitude Altitude Speed Heading
2026-05-03 20:15 -29.87731 168.70707 16264 ft 200 kts 319°
2026-05-03 20:15 -29.86683 168.69653 16269 ft 201 kts 320°
2026-05-03 20:15 -29.85626 168.68585 16259 ft 203 kts 319°
2026-05-03 20:15 -29.84561 168.67514 16259 ft 203 kts 320°
2026-05-03 20:16 -29.83488 168.66454 16264 ft 203 kts 320°
2026-05-03 20:16 -29.82423 168.65389 16263 ft 203 kts 320°
2026-05-03 20:16 -29.81355 168.64317 16264 ft 204 kts 320°
2026-05-03 20:16 -29.80283 168.63243 16265 ft 204 kts 320°
2026-05-03 20:17 -29.79212 168.62171 16267 ft 203 kts 320°
2026-05-03 20:17 -29.78143 168.61102 16261 ft 204 kts 320°
2026-05-03 20:17 -29.77087 168.60045 16260 ft 204 kts 320°
2026-05-03 20:17 -29.76011 168.58970 16261 ft 204 kts 320°
2026-05-03 20:18 -29.74939 168.57900 16258 ft 203 kts 320°
2026-05-03 20:18 -29.73870 168.56828 16256 ft 203 kts 320°
2026-05-03 20:18 -29.72801 168.55757 16257 ft 204 kts 320°
2026-05-03 20:18 -29.71725 168.54685 16253 ft 204 kts 320°
2026-05-03 20:19 -29.70652 168.53614 16257 ft 203 kts 320°
2026-05-03 20:19 -29.69596 168.52559 16255 ft 204 kts 320°
2026-05-03 20:19 -29.68521 168.51486 16252 ft 205 kts 320°
2026-05-03 20:19 -29.67447 168.50418 16255 ft 204 kts 320°
2026-05-03 20:20 -29.66376 168.49349 16246 ft 204 kts 320°
2026-05-03 20:20 -29.65303 168.48278 16247 ft 204 kts 320°
2026-05-03 20:20 -29.64230 168.47206 16244 ft 205 kts 320°
2026-05-03 20:20 -29.63154 168.46138 16248 ft 204 kts 320°
2026-05-03 20:21 -29.62084 168.45073 16247 ft 203 kts 320°
2026-05-03 20:21 -29.61011 168.44003 16249 ft 204 kts 320°
2026-05-03 20:21 -29.59935 168.42932 16250 ft 205 kts 320°
2026-05-03 20:21 -29.58857 168.41859 16248 ft 205 kts 320°
2026-05-03 20:22 -29.57784 168.40790 16250 ft 204 kts 320°
2026-05-03 20:22 -29.56723 168.39737 16248 ft 204 kts 320°
2026-05-03 20:22 -29.55647 168.38664 16248 ft 205 kts 320°
2026-05-03 20:22 -29.54569 168.37593 16247 ft 204 kts 320°
2026-05-03 20:23 -29.53495 168.36525 16246 ft 204 kts 320°
2026-05-03 20:23 -29.52418 168.35455 16245 ft 205 kts 320°
2026-05-03 20:23 -29.51337 168.34382 16245 ft 205 kts 320°
2026-05-03 20:23 -29.50258 168.33311 16245 ft 204 kts 320°
2026-05-03 20:24 -29.49186 168.32245 16245 ft 204 kts 320°
2026-05-03 20:24 -29.48107 168.31173 16241 ft 206 kts 320°
2026-05-03 20:24 -29.47022 168.30101 16243 ft 206 kts 320°
2026-05-03 20:24 -29.45935 168.29024 16244 ft 206 kts 320°
2026-05-03 20:25 -29.44851 168.27947 16243 ft 206 kts 319°
2026-05-03 20:25 -29.43767 168.26868 16245 ft 207 kts 320°
2026-05-03 20:25 -29.42676 168.25790 16247 ft 207 kts 320°
2026-05-03 20:25 -29.41588 168.24714 16240 ft 206 kts 320°
2026-05-03 20:26 -29.40501 168.23639 16240 ft 206 kts 320°
2026-05-03 20:26 -29.39415 168.22562 16237 ft 207 kts 320°
2026-05-03 20:26 -29.38325 168.21482 16236 ft 207 kts 320°
2026-05-03 20:26 -29.37238 168.20407 16239 ft 206 kts 320°
2026-05-03 20:27 -29.36152 168.19332 16237 ft 206 kts 320°
2026-05-03 20:27 -29.35065 168.18258 16239 ft 206 kts 320°
2026-05-03 20:27 -29.33985 168.17206 16236 ft 206 kts 324°
2026-05-03 20:27 -29.32701 168.16499 16228 ft 206 kts 329°
2026-05-03 20:28 -29.31820 168.15233 16227 ft 208 kts 295°
2026-05-03 20:28 -29.31335 168.13671 16226 ft 209 kts 289°
2026-05-03 20:28 -29.30874 168.12089 16226 ft 209 kts 289°
2026-05-03 20:28 -29.30245 168.10610 16218 ft 207 kts 314°
2026-05-03 20:29 -29.29020 168.09871 16010 ft 188 kts 351°
2026-05-03 20:29 -29.27810 168.09853 15311 ft 165 kts 10°
2026-05-03 20:29 -29.26735 168.10212 14599 ft 158 kts 20°
2026-05-03 20:29 -29.25713 168.10589 13903 ft 150 kts 17°
2026-05-03 20:30 -29.24708 168.10891 13124 ft 148 kts 16°
2026-05-03 20:30 -29.23707 168.11179 12373 ft 147 kts 16°
2026-05-03 20:30 -29.22717 168.11463 11641 ft 145 kts 18°
2026-05-03 20:30 -29.21735 168.11743 10931 ft 146 kts 17°
2026-05-03 20:31 -29.20745 168.12016 10226 ft 145 kts 20°
2026-05-03 20:31 -29.19773 168.12293 9474 ft 142 kts 18°
2026-05-03 20:31 -29.18815 168.12564 8727 ft 142 kts 20°
2026-05-03 20:31 -29.17873 168.12833 8008 ft 140 kts 22°
2026-05-03 20:32 -29.16938 168.13099 7292 ft 138 kts 21°
2026-05-03 20:32 -29.16005 168.13359 6587 ft 137 kts 23°
2026-05-03 20:32 -29.15085 168.13618 5847 ft 135 kts 25°
2026-05-03 20:32 -29.14181 168.13870 5115 ft 133 kts 22°
2026-05-03 20:33 -29.13223 168.13728 4379 ft 150 kts 347°
2026-05-03 20:33 -29.12467 168.12819 3641 ft 171 kts 300°
2026-05-03 20:33 -29.12149 168.11488 2911 ft 174 kts 289°
2026-05-03 20:33 -29.11839 168.10146 2264 ft 172 kts 289°
2026-05-03 20:34 -29.11554 168.08919 2193 ft 150 kts 288°
2026-05-03 20:34 -29.11239 168.07837 2189 ft 138 kts 306°
2026-05-03 20:34 -29.10567 168.07230 2192 ft 121 kts 345°
2026-05-03 20:34 -29.10005 168.06452 2194 ft 135 kts 302°
2026-05-03 20:35 -29.09587 168.05504 2190 ft 133 kts 306°
2026-05-03 20:35 -29.09172 168.04566 2192 ft 132 kts 304°
2026-05-03 20:35 -29.08765 168.03632 2192 ft 131 kts 304°
2026-05-03 20:35 -29.08360 168.02700 2192 ft 131 kts 304°
2026-05-03 20:36 -29.08024 168.01716 2112 ft 140 kts 290°
2026-05-03 20:36 -29.07888 168.00655 1972 ft 130 kts 281°
2026-05-03 20:36 -29.07602 167.99736 1759 ft 120 kts 308°
2026-05-03 20:36 -29.07197 167.98911 1508 ft 120 kts 313°
2026-05-03 20:37 -29.06754 167.98109 1282 ft 118 kts 312°
2026-05-03 20:37 -29.06296 167.97359 1088 ft 114 kts 322°
2026-05-03 20:37 -29.05791 167.96611 965 ft 122 kts 316°
2026-05-03 20:37 -29.05303 167.95890 772 ft 112 kts 311°
2026-05-03 20:38 -29.04883 167.95151 611 ft 109 kts 304°
2026-05-03 20:38 -29.04487 167.94460 367 ft 96 kts 311°
2026-05-03 20:38 -29.04233 167.94026 357 ft 19 kts 329°
2026-05-03 20:38 -29.04104 167.94075 357 ft 24 kts 57°
2026-05-03 20:39 -29.03991 167.94241 366 ft 29 kts 41°
2026-05-03 20:39 -29.03808 167.94326 367 ft 27 kts
2026-05-03 20:39 -29.03654 167.94366 368 ft 10 kts 353°
2026-05-03 20:39 -29.03571 167.94313 367 ft 7 kts 40°
2026-05-03 20:40 -29.03568 167.94322 367 ft 0 kts 70°